Wind_Speed
14 14 14 14 13 13 13 13 14 14 14 15 15 15 15 15 15 15 14 14 13 13 12 13 13 12 12 11 11 10 9 10 9 9 10 10 11 10 10 10 9 9 9
16 15 15 15 14 14 14 15 15 15 15 16 16 16 16 16 16 16 16 16 15 14 14 13 13 13 13 13 12 11 11 11 10 10 10 11 11 11 10 10 9 9 9
16 16 16 16 16 16 16 16 16 16 17 17 16 16 17 17 17 17 16 16 16 16 15 15 14 14 14 13 13 12 12 12 12 11 11 11 11 12 11 11 10 9 9
17 18 18 18 17 17 17 17 17 17 17 18 18 17 17 18 18 18 17 17 17 17 17 16 16 15 15 15 14 13 13 13 14 14 13 12 12 12 12 12 12 11 10
19 19 19 19 19 19 19 19 19 19 19 19 19 19 19 19 19 19 19 19 18 18 18 17 17 17 16 16 15 14 14 14 15 15 15 14 13 13 13 13 14 13 12
21 21 21 21 21 21 21 20 21 21 21 20 20 20 19 20 21 21 20 20 20 20 20 19 18 18 18 17 17 17 16 15 16 16 16 15 15 15 14 14 14 14 14
23 23 23 23 23 23 22 22 22 22 22 22 22 21 20 21 21 22 21 21 21 21 21 21 20 20 19 19 18 18 18 17 17 17 17 17 17 17 16 16 15 15 15
25 25 25 25 26 25 25 25 24 24 24 23 23 22 22 22 22 22 22 22 23 23 22 22 22 21 20 20 19 19 19 19 18 18 18 18 17 17 17 17 17 17 16
27 27 27 27 27 27 27 27 27 26 26 26 25 25 24 24 24 24 24 23 23 23 23 23 23 23 22 21 21 21 20 20 19 19 19 18 18 17 18 18 18 18 18
28 28 29 29 29 29 29 29 29 29 28 28 28 28 27 26 26 26 25 26 25 25 24 24 24 24 24 23 23 22 22 22 21 20 20 19 19 19 19 19 19 19 19
30 30 30 30 31 31 30 31 31 31 31 31 31 30 29 29 28 28 28 27 27 27 27 26 26 26 25 25 25 24 24 24 23 23 22 21 21 21 21 20 20 21 21
31 31 32 32 32 33 33 33 33 33 33 33 32 32 32 32 31 30 30 29 29 29 29 29 29 28 27 27 26 26 26 26 26 25 25 24 23 22 22 22 22 22 22
33 33 34 34 35 35 35 35 35 35 35 34 34 34 34 33 33 32 32 31 31 31 31 31 31 30 29 29 28 28 28 28 28 27 26 26 25 25 25 24 24 24 24
36 36 36 36 36 36 36 37 37 37 37 37 36 36 35 35 35 35 34 34 34 33 33 33 32 31 32 31 30 30 30 30 29 29 28 28 28 27 27 27 27 26 26
37 38 38 38 38 38 38 38 38 38 38 38 38 38 38 37 37 37 37 37 36 35 35 35 35 34 33 33 32 32 32 32 31 31 30 30 30 30 30 30 30 29 29
38 39 39 40 40 40 40 40 40 40 39 39 40 40 40 40 40 40 39 39 39 38 38 37 37 36 35 35 35 34 34 34 34 33 33 33 32 32 32 32 32 32 31
39 40 41 41 41 41 41 41 42 42 41 42 41 41 41 41 42 42 41 41 41 40 40 39 39 39 38 38 37 37 36 36 35 35 35 35 35 34 34 34 34 34 34
39 40 41 42 43 42 42 43 43 43 43 43 42 42 42 42 41 41 42 42 42 42 41 41 42 41 41 40 39 39 38 38 37 37 37 37 37 36 36 36 36 36 36
39 39 41 42 43 43 43 43 44 44 44 44 44 43 43 44 44 43 43 43 42 43 43 43 43 43 42 42 42 41 41 40 40 40 39 39 39 38 38 38 38 38 38
41 40 41 42 43 43 44 44 44 44 44 45 45 45 45 45 46 46 44 44 44 43 44 44 44 44 44 44 44 43 43 43 42 42 42 41 41 41 41 40 40 40 40
41 42 41 42 43 43 44 45 44 44 45 45 45 46 46 46 46 46 45 45 45 45 45 46 45 45 46 46 46 46 46 45 45 45 44 44 44 43 43 43 43 42 42
41 42 42 42 43 44 45 45 45 45 45 46 46 45 45 45 45 46 47 46 46 46 46 47 47 47 47 47 47 48 48 48 48 47 47 46 46 46 45 45 44 44 44
41 41 41 41 42 44 45 45 45 46 46 46 47 47 46 46 46 47 47 47 47 46 46 47 47 47 48 48 49 49 49 49 49 49 49 49 48 48 48 47 47 47 46
41 41 41 41 42 43 44 45 46 46 46 47 47 48 48 48 48 48 48 48 48 48 48 48 48 48 48 48 49 50 51 51 50 50 50 51 51 50 50 50 50 49 49
42 42 42 41 41 43 44 45 45 46 46 46 47 48 48 49 49 49 50 50 50 50 50 50 50 50 50 50 50 51 52 52 52 53 52 52 52 52 52 52 52 51 51
42 42 42 42 42 43 44 44 45 45 46 47 47 48 48 48 49 50 50 51 51 51 51 51 52 53 53 52 52 53 53 53 53 54 53 53 54 54 54 54 54 53 53
Wind_Direction
250 251 250 248 247 251 252 251 248 248 247 247 247 243 240 240 239 239 239 240 239 241 239 234 232 229 228 231 234 237 237 230 226 219 213 210 210 209 209 210 212 211 210
249 251 252 251 251 253 253 252 249 249 250 249 246 242 240 240 240 242 242 242 239 240 240 239 235 233 232 233 236 239 238 230 224 221 216 212 213 214 215 214 216 219 217
251 252 253 253 254 254 254 252 249 248 249 249 246 244 243 242 241 240 241 243 241 242 243 242 239 236 235 235 237 238 238 231 226 224 223 219 218 219 221 219 218 220 221
252 252 253 254 257 255 254 253 251 249 249 248 246 246 246 244 243 242 242 242 242 241 242 242 241 240 238 236 236 237 237 234 230 228 227 226 224 223 225 225 222 222 225
251 252 253 254 255 255 255 253 252 251 250 249 247 247 246 246 245 245 244 242 241 241 240 239 239 241 241 241 239 236 236 237 231 231 231 231 230 228 225 225 226 227 229
251 252 253 253 254 254 254 254 251 251 251 251 249 247 246 247 247 247 245 244 243 242 241 239 239 240 242 243 241 238 237 235 235 235 235 235 236 235 231 228 230 231 232
251 252 252 252 253 254 254 254 252 251 252 251 250 247 246 247 247 246 246 245 244 243 242 242 242 240 240 241 241 239 238 236 235 236 237 237 237 237 236 236 233 233 233
253 254 253 252 252 252 253 254 252 252 252 251 250 248 247 247 248 247 245 245 245 244 243 242 242 241 241 241 241 241 240 238 236 236 235 236 238 239 240 240 238 237 234
255 254 254 253 253 252 252 253 252 252 252 252 250 249 248 248 249 248 247 247 247 246 245 244 243 242 242 242 242 241 240 240 239 239 240 239 239 240 242 242 242 241 240
255 255 254 254 253 252 252 252 252 253 252 251 251 250 250 249 249 249 249 250 249 247 246 246 245 244 243 244 244 244 243 242 241 241 241 241 240 241 242 242 243 243 243
256 256 256 255 254 254 253 253 252 253 253 252 251 250 251 250 250 250 250 250 250 250 249 247 246 245 244 244 244 244 243 242 242 242 241 241 241 242 242 243 245 244 244
256 257 257 256 255 254 254 254 253 254 253 253 252 251 251 251 250 250 249 249 250 251 250 248 247 245 245 246 246 245 243 243 243 244 243 241 241 241 243 243 243 244 245
256 257 257 257 256 255 255 254 254 254 254 253 252 251 250 250 250 250 250 250 249 250 250 249 248 247 246 246 247 247 245 245 244 244 244 243 243 243 244 243 245 245 246
256 256 257 257 257 256 254 253 253 253 253 253 253 252 250 250 250 251 251 251 250 249 249 249 249 248 248 249 248 247 246 245 245 245 244 244 244 245 246 246 247 247 247
257 256 256 256 256 255 254 254 253 252 252 252 253 252 251 251 251 251 251 251 251 250 250 250 250 251 250 249 248 247 246 247 247 247 247 246 246 247 248 249 250 250 250
256 256 256 255 255 255 254 253 253 252 252 251 252 252 252 251 251 251 251 251 251 251 251 251 250 251 250 249 248 248 247 247 248 248 249 248 248 249 249 249 250 252 253
257 257 256 256 255 255 254 253 253 253 253 252 251 252 252 251 250 250 250 251 251 251 251 252 252 252 251 250 249 249 249 249 249 249 250 251 252 253 253 253 253 253 254
258 258 257 256 256 255 255 254 253 253 253 252 252 252 251 250 250 250 250 250 251 251 250 251 251 252 251 250 250 250 250 250 250 251 251 252 253 253 254 255 255 255 255
259 259 259 258 257 256 256 255 254 253 253 252 251 251 251 250 250 250 250 250 250 250 250 250 250 250 251 251 251 251 251 251 251 252 252 253 253 254 255 256 256 256 255
259 260 260 260 259 257 255 255 254 253 253 252 252 251 250 251 250 250 250 250 250 251 250 249 250 250 250 251 251 251 252 251 252 252 253 253 254 254 255 256 257 257 257
260 261 260 259 258 257 256 255 253 252 251 251 251 251 251 251 250 250 251 251 251 251 250 249 249 250 250 251 252 252 252 252 253 253 253 253 254 254 255 256 257 258 259
260 261 260 260 258 256 255 254 252 251 250 250 250 250 250 250 251 251 251 251 251 251 251 250 249 250 251 251 252 253 253 253 253 253 254 254 254 254 255 256 257 258 258
261 260 260 260 259 258 256 254 252 252 251 250 250 250 250 251 251 252 251 251 251 251 252 252 251 251 252 252 253 254 254 254 254 254 254 254 254 255 255 256 257 258 259
260 261 261 260 259 258 257 256 254 253 252 251 251 251 252 252 251 251 251 252 252 252 253 253 253 253 253 254 254 255 255 255 254 254 254 255 255 256 256 257 258 259 260
260 261 260 260 260 259 258 257 255 254 252 251 251 251 252 253 253 252 252 253 253 253 253 253 254 254 255 255 255 255 256 256 255 255 255 255 256 256 257 257 258 259 260
261 261 259 259 261 260 258 256 255 254 252 251 251 252 252 252 253 253 253 254 254 254 254 254 254 255 255 255 255 255 256 256 256 256 255 255 255 256 257 258 258 259 260
Height
5829 5829 5830 5830 5831 5831 5832 5832 5833 5833 5833 5834 5835 5835 5836 5837 5838 5839 5840 5841 5841 5842 5843 5843 5844 5844 5845 5845 5846 5846 5846 5846 5846 5846 5847 5849 5851 5853 5855 5856 5857 5858 5859
5826 5826 5827 5827 5828 5828 5829 5830 5830 5831 5831 5831 5832 5833 5834 5835 5836 5837 5838 5838 5839 5840 5841 5841 5842 5843 5843 5844 5844 5844 5844 5845 5845 5846 5847 5849 5850 5852 5853 5855 5856 5857 5858
5823 5824 5824 5825 5825 5826 5826 5827 5828 5828 5828 5829 5830 5830 5832 5833 5834 5835 5835 5836 5837 5837 5838 5839 5840 5840 5841 5842 5842 5843 5843 5844 5844 5845 5846 5848 5849 5851 5852 5854 5855 5856 5856
5820 5820 5821 5822 5822 5823 5823 5824 5825 5825 5826 5826 5827 5828 5829 5830 5831 5832 5833 5833 5834 5835 5836 5836 5837 5838 5839 5840 5840 5841 5841 5842 5843 5844 5845 5846 5848 5849 5851 5852 5853 5854 5855
5816 5817 5817 5818 5819 5819 5820 5820 5821 5822 5823 5823 5824 5825 5826 5827 5828 5829 5830 5831 5832 5832 5833 5834 5835 5836 5837 5837 5838 5839 5839 5840 5841 5842 5843 5845 5846 5847 5849 5850 5851 5852 5853
5811 5812 5813 5814 5815 5815 5816 5817 5817 5818 5819 5820 5821 5821 5822 5823 5824 5825 5826 5827 5828 5829 5830 5831 5832 5833 5834 5835 5835 5836 5837 5838 5839 5840 5841 5843 5844 5845 5846 5848 5849 5850 5851
5807 5808 5809 5809 5810 5811 5812 5813 5813 5814 5815 5816 5817 5817 5818 5819 5820 5821 5822 5823 5825 5826 5826 5827 5829 5830 5831 5831 5832 5834 5835 5836 5837 5838 5839 5840 5841 5843 5844 5845 5846 5847 5848
5802 5803 5804 5804 5806 5806 5807 5808 5809 5810 5811 5812 5812 5813 5814 5815 5816 5817 5818 5819 5820 5821 5823 5824 5825 5826 5827 5828 5829 5830 5831 5833 5834 5835 5836 5837 5839 5840 5841 5842 5843 5844 5846
5796 5797 5798 5799 5800 5801 5802 5803 5804 5805 5806 5807 5808 5809 5810 5811 5812 5812 5814 5815 5816 5817 5818 5819 5821 5822 5823 5824 5825 5826 5828 5829 5830 5831 5832 5834 5835 5837 5838 5839 5840 5841 5842
5790 5791 5792 5793 5794 5795 5796 5797 5798 5799 5800 5801 5802 5803 5804 5806 5807 5808 5809 5810 5811 5812 5814 5815 5816 5817 5818 5820 5821 5822 5824 5825 5827 5828 5829 5830 5831 5833 5834 5835 5836 5838 5839
5783 5784 5785 5786 5787 5788 5790 5791 5792 5793 5794 5795 5796 5797 5798 5800 5801 5803 5804 5805 5806 5807 5808 5810 5811 5812 5814 5815 5816 5818 5819 5821 5822 5823 5825 5826 5827 5828 5830 5831 5832 5833 5835
5776 5777 5778 5779 5780 5781 5783 5784 5785 5786 5787 5788 5790 5791 5792 5794 5795 5797 5798 5799 5800 5802 5803 5804 5805 5807 5808 5810 5811 5813 5814 5816 5817 5819 5820 5821 5822 5824 5825 5826 5828 5829 5830
5768 5769 5770 5771 5772 5773 5775 5776 5777 5779 5780 5781 5782 5784 5785 5787 5788 5790 5791 5793 5794 5796 5797 5798 5800 5801 5802 5804 5805 5807 5809 5810 5812 5813 5815 5816 5817 5819 5820 5821 5823 5824 5825
5760 5761 5762 5763 5764 5765 5766 5767 5769 5770 5771 5773 5775 5776 5777 5779 5781 5782 5784 5786 5787 5789 5790 5792 5793 5795 5796 5798 5799 5801 5803 5804 5806 5807 5809 5810 5812 5813 5814 5816 5817 5819 5820
5750 5751 5753 5753 5754 5756 5757 5758 5759 5761 5762 5764 5766 5768 5769 5771 5773 5775 5776 5778 5780 5781 5783 5784 5786 5788 5789 5791 5793 5794 5796 5798 5799 5801 5802 5804 5806 5807 5808 5810 5811 5813 5814
5740 5741 5742 5744 5744 5746 5747 5748 5750 5751 5753 5754 5756 5758 5760 5762 5763 5765 5767 5769 5771 5773 5774 5776 5778 5780 5782 5784 5786 5787 5789 5791 5792 5794 5796 5797 5799 5800 5802 5803 5805 5806 5807
5730 5731 5732 5733 5734 5736 5737 5738 5740 5741 5743 5745 5747 5749 5751 5752 5754 5756 5758 5760 5762 5764 5766 5767 5769 5771 5774 5776 5778 5780 5781 5783 5785 5786 5788 5790 5791 5793 5795 5796 5797 5799 5800
5719 5721 5722 5722 5724 5725 5726 5728 5729 5731 5732 5734 5736 5738 5740 5742 5744 5746 5748 5750 5752 5754 5756 5758 5760 5762 5764 5767 5769 5771 5773 5775 5777 5778 5780 5782 5783 5785 5787 5788 5790 5791 5792
5708 5709 5710 5711 5712 5713 5715 5716 5718 5720 5721 5723 5725 5727 5729 5731 5733 5735 5737 5739 5741 5743 5746 5748 5750 5752 5755 5757 5759 5761 5763 5765 5767 5770 5771 5773 5775 5776 5778 5780 5781 5782 5783
5697 5698 5699 5699 5701 5702 5703 5705 5706 5708 5710 5712 5714 5716 5718 5720 5722 5724 5726 5728 5730 5733 5735 5737 5739 5742 5744 5747 5749 5751 5753 5756 5758 5760 5762 5764 5765 5767 5769 5770 5772 5773 5775
5686 5686 5686 5687 5689 5690 5691 5693 5695 5696 5698 5700 5702 5704 5706 5709 5711 5713 5715 5717 5719 5722 5724 5726 5728 5730 5733 5735 5738 5740 5743 5745 5747 5749 5751 5753 5755 5757 5759 5760 5762 5764 5765
5674 5674 5674 5674 5676 5678 5679 5680 5682 5684 5686 5688 5690 5692 5694 5697 5699 5701 5703 5706 5708 5710 5712 5715 5717 5719 5721 5724 5726 5728 5731 5734 5736 5738 5740 5742 5744 5746 5748 5750 5751 5753 5755
5662 5662 5662 5663 5663 5665 5667 5668 5670 5672 5674 5676 5679 5681 5683 5685 5687 5689 5691 5693 5696 5698 5700 5702 5705 5708 5710 5712 5714 5717 5719 5722 5724 5726 5728 5730 5732 5734 5736 5738 5740 5741 5743
5649 5650 5650 5651 5651 5652 5654 5656 5658 5660 5662 5665 5667 5669 5671 5673 5675 5677 5679 5681 5683 5685 5688 5690 5693 5695 5698 5700 5702 5704 5707 5709 5711 5714 5716 5718 5720 5722 5723 5725 5727 5729 5731
5637 5638 5638 5639 5639 5640 5641 5643 5645 5647 5649 5652 5654 5656 5658 5660 5662 5664 5667 5668 5671 5673 5675 5678 5680 5683 5685 5687 5689 5691 5693 5695 5697 5700 5703 5705 5707 5708 5710 5712 5714 5716 5718
5625 5626 5626 5627 5627 5628 5629 5630 5632 5634 5636 5639 5641 5643 5646 5648 5650 5652 5654 5656 5658 5660 5662 5664 5667 5669 5671 5674 5676 5678 5680 5681 5684 5686 5689 5691 5693 5695 5696 5698 5701 5703 5705